This demonstration page uses our WeatherBlox Daily Observations layout. Learn more.

38.88101, -77.10428

Hourly Observations for October 21, 2017

Temp ( °F °C ) Dew Point ( °F °C ) Humidity (%) Winds ( mph kmh ) Pressure ( in mb ) Visibility ( mi km ) Precip ( " mm )
12:52 am 00:52 Clear 59 15 51 10.6 75 75 SSW 3 6 30.27 1025 10 16.0934 0 0
1:52 am 01:52 Clear 58 14.4 51 10.6 78 78 Calm 30.27 1025 10 16.0934 0 0
2:52 am 02:52 Clear 56 13.3 50 10 81 81 Calm 30.27 1025 10 16.0934 0 0
3:52 am 03:52 Clear 54 12.2 51 10.6 90 90 SW 3 6 30.27 1025 10 16.0934 0 0
4:52 am 04:52 Clear 54 12.2 50 10 87 87 N 3 6 30.28 1025 10 16.0934 0 0
5:52 am 05:52 Clear 52 11.1 49 9.4 89 89 N 6 9 30.29 1026 10 16.0934 0 0
6:52 am 06:52 Mostly Clear 52 11.1 48 8.9 86 86 N 6 9 30.31 1026 10 16.0934 0 0
7:52 am 07:52 Mostly Cloudy 54 12.2 49 9.4 83 83 N 5 7 30.33 1027 10 16.0934 0 0
8:52 am 08:52 Partly Cloudy 58 14.4 52 11.1 81 81 N 3 6 30.35 1028 10 16.0934 0 0
9:52 am 09:52 Partly Cloudy 62 16.7 53 11.7 73 73 Calm 30.37 1028 10 16.0934 0 0
10:52 am 10:52 Partly Cloudy 68 20 51 10.6 55 55 VRB 3 6 30.37 1028 10 16.0934 0 0
11:52 am 11:52 Mostly Cloudy 73 22.8 44 6.7 35 35 Calm 30.36 1028 10 16.0934 0 0
12:52 pm 12:52 Mostly Cloudy 75 23.9 39 3.9 27 27 S 5 7 30.35 1028 10 16.0934 0 0
1:52 pm 13:52 Mostly Cloudy 76 24.4 42 5.6 30 30 VRB 5 7 30.32 1027 10 16.0934 0 0
2:52 pm 14:52 Mostly Cloudy 77 25 43 6.1 30 30 VRB 5 7 30.31 1027 10 16.0934 0 0
3:52 pm 15:52 Mostly Cloudy 77 25 43 6.1 30 30 S 3 6 30.32 1027 10 16.0934 0 0
4:52 pm 16:52 Mostly Cloudy 75 23.9 44 6.7 33 33 S 6 9 30.32 1027 10 16.0934 0 0
5:52 pm 17:52 Mostly Cloudy 71 21.7 52 11.1 51 51 SSE 3 6 30.32 1027 10 16.0934 0 0
6:52 pm 18:52 Mostly Cloudy 69 20.6 49 9.4 49 49 SE 7 11 30.34 1028 10 16.0934 0 0
7:52 pm 19:52 Mostly Cloudy 67 19.4 48 8.9 51 51 S 7 11 30.35 1028 10 16.0934 0 0
8:52 pm 20:52 Mostly Cloudy 66 18.9 51 10.6 59 59 S 3 6 30.36 1028 10 16.0934 0 0
9:52 pm 21:52 Mostly Cloudy 65 18.3 52 11.1 63 63 Calm 30.36 1028 10 16.0934 0 0
10:52 pm 22:52 Mostly Cloudy 62 16.7 50 10 65 65 Calm 30.37 1028 10 16.0934 0 0
11:52 pm 23:52 Mostly Cloudy 61 16.1 50 10 67 67 Calm 30.36 1028 10 16.0934 0 0

Powered by AerisWeather